Location: Budapest
(47.4979°N, 19.0402°E)
Time: 09:45:02
(UTC+02:00)

ISS - Pass Details

Date: 07 October 2020
Orbit: 418 x 420 km, 51.6° (Epoch: 21 October)

Event Time Altitude Azimuth Distance (km) Brightness Sun altitude
Rises 19:35:21 0° 284° (WNW) 2,367 1.9 -15.1°
Reaches altitude 10° 19:38:14 10° 257° (WSW) 1,499 0.2 -15.6°
Maximum altitude 19:40:00 14° 225° (SW) 1,292 -0.8 -15.9°
Drops below altitude 10° 19:41:46 10° 193° (SSW) 1,494 -0.9 -16.2°
Enters shadow 19:43:30 - 174° (S) 1,969 -0.5 -16.5°
